Terminal Aerodrome Forecast
Issued by NWS Shreveport, LA

Home | Current Version | Previous Version | Text Only | Print | Product List | Glossary On
Versions: 1 2 3 4 5 6 7 8 9 10 11 12 13 14 15 16 17 18
000
FTUS44 KSHV 011728 AAA
TAFTYR
TAF AMD
KTYR 011728Z 0117/0212 24011KT P6SM SCT035 SCT250
     FM011900 23012G19KT P6SM BKN040 BKN120
     FM020000 18009KT P6SM FEW050 SCT250
     FM020900 20010KT P6SM FEW012 SCT100
     FM021100 21010KT 6SM BR BKN010=

USA.gov is the U.S. government's official web portal to all federal, state and local government web resources and services.